Cloud_Cover
100 6 0 0 0 0 1 12 5 10 2 0 0 0 0 0 0 0 0 0 0 7 28 2 0 0 2 1 0 0 0 0 0 0 0 0 0 17 66 50 59 48 49
94 1 0 1 1 15 15 3 2 0 0 0 0 0 0 0 0 0 0 0 0 2 1 0 4 12 12 0 0 0 0 0 0 0 0 0 0 0 1 22 5 18 7
84 3 3 10 12 17 15 2 1 1 0 1 3 0 0 1 0 0 0 0 0 16 8 12 3 0 0 9 8 0 0 0 0 0 0 0 0 0 0 4 5 5 3
42 27 100 100 87 94 100 73 75 44 7 27 27 20 23 20 15 16 4 0 0 0 0 8 10 0 0 0 0 5 0 0 0 0 0 0 0 0 0 5 2 0 3
33 78 78 55 19 6 0 0 0 0 0 1 0 0 0 3 25 19 0 0 0 0 0 0 0 0 0 0 0 1 0 0 0 0 0 0 0 0 0 0 3 0 1
5 1 0 5 5 5 0 0 0 0 0 0 0 0 0 0 0 0 12 2 0 3 2 0 0 0 0 0 0 0 0 0 0 0 0 0 0 0 0 0 0 0 0
5 3 5 5 5 5 0 0 0 0 0 0 0 0 0 0 0 0 1 20 2 1 16 12 8 0 0 0 0 0 0 0 0 0 3 2 2 0 1 0 0 0 1
5 5 5 5 3 4 4 0 0 0 0 0 0 0 0 0 0 0 0 0 0 0 0 0 0 0 0 0 0 2 4 2 4 0 1 9 6 0 0 1 4 0 3
5 5 5 7 5 2 0 0 0 0 0 0 0 0 0 0 0 0 0 0 0 0 0 0 3 5 8 5 15 5 3 0 0 4 0 11 0 24 44 1 2 3 1
54 6 52 5 5 5 0 0 0 0 0 0 0 0 0 0 0 0 0 0 0 0 0 0 5 5 30 100 59 0 0 0 0 2 15 24 99 96 51 28 6 16 7
91 22 6 5 3 0 0 0 0 0 0 0 0 0 0 0 0 0 0 0 0 1 2 2 6 100 35 5 4 2 3 0 0 5 22 1 5 11 31 14 0 6 1
99 76 8 3 0 0 0 0 0 0 0 1 0 0 0 0 0 0 0 0 0 5 5 15 98 37 5 1 0 0 0 0 0 8 20 0 0 3 42 15 29 15 0
99 69 10 0 0 0 2 3 3 5 10 5 2 3 0 1 2 9 11 23 3 5 40 20 6 5 0 0 0 0 0 0 0 26 24 4 0 0 1 15 0 0 0
35 100 8 0 5 8 84 56 44 5 8 100 31 5 4 11 6 8 15 5 9 87 5 6 7 0 0 0 0 0 0 0 4 35 100 1 6 1 0 0 73 0 2
65 98 5 1 5 5 33 82 44 28 95 0 1 5 5 48 96 93 5 7 19 5 1 0 0 0 0 0 0 0 0 0 3 74 100 100 77 10 6 100 100 67 78
100 60 5 5 5 8 5 7 51 100 61 5 5 22 64 15 6 5 65 82 7 4 0 0 0 0 0 0 0 0 7 75 100 100 100 100 100 100 94 100 64 97 100
92 10 46 7 28 64 97 100 100 68 10 5 5 12 32 8 52 52 94 94 3 0 0 0 0 0 0 0 0 36 100 85 31 27 51 30 91 100 100 100 100 97 100
78 99 65 18 47 99 98 6 5 15 42 18 5 5 6 57 92 96 81 4 0 0 0 0 0 0 0 16 100 100 100 29 3 0 0 0 0 10 3 0 0 0 0
96 100 64 34 97 100 97 33 82 71 70 11 7 53 51 38 23 5 2 0 0 0 0 0 0 0 0 63 100 100 70 22 1 0 0 0 0 0 0 0 0 0 0
100 100 64 96 100 99 77 100 95 96 17 17 19 14 63 15 1 0 0 0 0 0 0 0 0 0 0 98 100 94 44 11 0 0 0 0 0 0 0 0 0 0 0
100 100 99 100 100 95 100 36 28 27 8 68 100 100 10 4 0 0 0 0 0 0 0 0 0 0 0 25 78 100 72 0 0 0 0 0 0 0 0 0 0 0 0
76 100 100 68 87 100 65 40 25 35 14 5 5 0 0 0 0 0 0 0 0 0 0 0 0 0 0 0 0 0 3 24 6 0 0 1 5 2 0 0 0 0 0
95 100 88 100 100 100 80 76 24 12 5 5 0 0 0 0 0 0 0 0 0 0 0 0 0 0 0 0 0 0 1 4 7 45 38 13 8 9 5 1 1 3 0
100 98 100 100 100 80 78 64 48 5 5 1 0 0 0 0 0 0 0 0 0 0 0 0 0 0 0 0 2 5 3 5 8 83 41 41 99 97 23 5 3 0 0
100 100 100 98 72 96 71 11 8 7 0 0 0 0 0 0 0 0 0 0 0 0 0 0 2 5 5 55 71 100 100 100 100 100 100 43 5 23 29 65 44 15 10
100 100 100 100 69 24 5 26 6 1 0 0 0 0 0 0 0 0 0 0 0 0 0 2 3 3 5 5 13 47 49 51 7 38 31 27 3 0 0 1 28 31 2